Year,Month,Day,Hour,Minute,Value (Times are PST for temperature in C)
2021,06,03,00,00,17.00
2021,06,03,00,01,16.90
2021,06,03,00,02,16.90
2021,06,03,00,03,16.80
2021,06,03,00,04,16.70
2021,06,03,00,05,16.70
2021,06,03,00,06,16.70
2021,06,03,00,07,16.70
2021,06,03,00,08,16.70
2021,06,03,00,09,16.60
2021,06,03,00,10,16.60
2021,06,03,00,11,16.50
2021,06,03,00,12,16.50
2021,06,03,00,13,16.50
2021,06,03,00,14,16.60
2021,06,03,00,15,16.60
2021,06,03,00,16,16.60
2021,06,03,00,17,16.70
2021,06,03,00,18,16.70
2021,06,03,00,19,16.70
2021,06,03,00,20,16.70
2021,06,03,00,21,16.60
2021,06,03,00,22,16.50
2021,06,03,00,23,16.50
2021,06,03,00,24,16.40
2021,06,03,00,25,16.40
2021,06,03,00,26,16.40
2021,06,03,00,27,16.30
2021,06,03,00,28,16.30
2021,06,03,00,29,16.30
2021,06,03,00,30,16.30
2021,06,03,00,31,16.40
2021,06,03,00,32,16.40
2021,06,03,00,33,16.40
2021,06,03,00,34,16.30
2021,06,03,00,35,16.30
2021,06,03,00,36,16.30
2021,06,03,00,37,16.30
2021,06,03,00,38,16.30
2021,06,03,00,39,16.30
2021,06,03,00,40,16.30
2021,06,03,00,41,16.20
2021,06,03,00,42,16.20
2021,06,03,00,43,16.20
2021,06,03,00,44,16.10
2021,06,03,00,45,16.10
2021,06,03,00,46,16.10
2021,06,03,00,47,16.10
2021,06,03,00,48,16.20
2021,06,03,00,49,16.20
2021,06,03,00,50,16.20
2021,06,03,00,51,16.20
2021,06,03,00,52,16.10
2021,06,03,00,53,16.10
2021,06,03,00,54,16.10
2021,06,03,00,55,16.00
2021,06,03,00,56,16.00
2021,06,03,00,57,16.00
2021,06,03,00,58,16.00
2021,06,03,00,59,15.90
2021,06,03,01,00,15.90
2021,06,03,01,01,15.90
2021,06,03,01,02,15.80
2021,06,03,01,03,15.80
2021,06,03,01,04,15.70
2021,06,03,01,05,15.70
2021,06,03,01,06,15.70
2021,06,03,01,07,15.60
2021,06,03,01,08,15.60
2021,06,03,01,09,15.50
2021,06,03,01,10,15.50
2021,06,03,01,11,15.40
2021,06,03,01,12,15.30
2021,06,03,01,13,15.30
2021,06,03,01,14,15.30
2021,06,03,01,15,15.30
2021,06,03,01,16,15.30
2021,06,03,01,17,15.30
2021,06,03,01,18,15.20
2021,06,03,01,19,15.10
2021,06,03,01,20,15.10
2021,06,03,01,21,15.00
2021,06,03,01,22,15.00
2021,06,03,01,23,15.00
2021,06,03,01,24,15.10
2021,06,03,01,25,15.20
2021,06,03,01,26,15.20
2021,06,03,01,27,15.20
2021,06,03,01,28,15.20
2021,06,03,01,29,15.30
2021,06,03,01,30,15.30
2021,06,03,01,31,15.30
2021,06,03,01,32,15.30
2021,06,03,01,33,15.30
2021,06,03,01,34,15.30
2021,06,03,01,35,15.20
2021,06,03,01,36,15.20
2021,06,03,01,37,15.20
2021,06,03,01,38,15.20
2021,06,03,01,39,15.30
2021,06,03,01,40,15.30
2021,06,03,01,41,15.30
2021,06,03,01,42,15.20
2021,06,03,01,43,15.30
2021,06,03,01,44,15.30
2021,06,03,01,45,15.30
2021,06,03,01,46,15.30
2021,06,03,01,47,15.30
2021,06,03,01,48,15.30
2021,06,03,01,49,15.30
2021,06,03,01,50,15.30
2021,06,03,01,51,15.30
2021,06,03,01,52,15.30
2021,06,03,01,53,15.30
2021,06,03,01,54,15.20
2021,06,03,01,55,15.20
2021,06,03,01,56,15.20
2021,06,03,01,57,15.20
2021,06,03,01,58,15.20
2021,06,03,01,59,15.10
2021,06,03,02,00,15.10
2021,06,03,02,01,15.00
2021,06,03,02,02,14.90
2021,06,03,02,03,14.80
2021,06,03,02,04,14.80
2021,06,03,02,05,14.80
2021,06,03,02,06,14.80
2021,06,03,02,07,14.90
2021,06,03,02,08,14.80
2021,06,03,02,09,14.80
2021,06,03,02,10,14.80
2021,06,03,02,11,14.80
2021,06,03,02,12,14.70
2021,06,03,02,13,14.70
2021,06,03,02,14,14.70
2021,06,03,02,15,14.60
2021,06,03,02,16,14.60
2021,06,03,02,17,14.60
2021,06,03,02,18,14.60
2021,06,03,02,19,14.60
2021,06,03,02,20,14.60
2021,06,03,02,21,14.60
2021,06,03,02,22,14.60
2021,06,03,02,23,14.60
2021,06,03,02,24,14.60
2021,06,03,02,25,14.60
2021,06,03,02,26,14.70
2021,06,03,02,27,14.70
2021,06,03,02,28,14.70
2021,06,03,02,29,14.70
2021,06,03,02,30,14.60
2021,06,03,02,31,14.60
2021,06,03,02,32,14.60
2021,06,03,02,33,14.60
2021,06,03,02,34,14.60
2021,06,03,02,35,14.50
2021,06,03,02,36,14.50
2021,06,03,02,37,14.50
2021,06,03,02,38,14.40
2021,06,03,02,39,14.40
2021,06,03,02,40,14.40
2021,06,03,02,41,14.30
2021,06,03,02,42,14.30
2021,06,03,02,43,14.30
2021,06,03,02,44,14.30
2021,06,03,02,45,14.30
2021,06,03,02,46,14.30
2021,06,03,02,47,14.30
2021,06,03,02,48,14.20
2021,06,03,02,49,14.20
2021,06,03,02,50,14.20
2021,06,03,02,51,14.20
2021,06,03,02,52,14.20
2021,06,03,02,53,14.20
2021,06,03,02,54,14.20
2021,06,03,02,55,14.20
2021,06,03,02,56,14.10
2021,06,03,02,57,14.10
2021,06,03,02,58,14.10
2021,06,03,02,59,14.10
2021,06,03,03,00,14.00
2021,06,03,03,01,14.00
2021,06,03,03,02,14.00
2021,06,03,03,03,14.00
2021,06,03,03,04,14.10
2021,06,03,03,05,14.10
2021,06,03,03,06,14.20
2021,06,03,03,07,14.20
2021,06,03,03,08,14.20
2021,06,03,03,09,14.20
2021,06,03,03,10,14.20
2021,06,03,03,11,14.20
2021,06,03,03,12,14.10
2021,06,03,03,13,14.10
2021,06,03,03,14,14.10
2021,06,03,03,15,14.10
2021,06,03,03,16,14.10
2021,06,03,03,17,14.10
2021,06,03,03,18,14.10
2021,06,03,03,19,14.10
2021,06,03,03,20,14.10
2021,06,03,03,21,14.10
2021,06,03,03,22,14.00
2021,06,03,03,23,14.00
2021,06,03,03,24,14.00
2021,06,03,03,25,13.90
2021,06,03,03,26,13.90
2021,06,03,03,27,13.90
2021,06,03,03,28,13.90
2021,06,03,03,29,13.90
2021,06,03,03,30,13.90
2021,06,03,03,31,13.80
2021,06,03,03,32,13.80
2021,06,03,03,33,13.80
2021,06,03,03,34,13.80
2021,06,03,03,35,13.80
2021,06,03,03,36,13.80
2021,06,03,03,37,13.80
2021,06,03,03,38,13.80
2021,06,03,03,39,13.80
2021,06,03,03,40,13.80
2021,06,03,03,41,13.80
2021,06,03,03,42,13.80
2021,06,03,03,43,13.80
2021,06,03,03,44,13.80
2021,06,03,03,45,13.80
2021,06,03,03,46,13.80
2021,06,03,03,47,13.80
2021,06,03,03,48,13.80
2021,06,03,03,49,13.80
2021,06,03,03,50,13.70
2021,06,03,03,51,13.70
2021,06,03,03,52,13.70
2021,06,03,03,53,13.70
2021,06,03,03,54,13.70
2021,06,03,03,55,13.70
2021,06,03,03,56,13.60
2021,06,03,03,57,13.60
2021,06,03,03,58,13.60
2021,06,03,03,59,13.60
2021,06,03,04,00,13.60
2021,06,03,04,01,13.60
2021,06,03,04,02,13.60
2021,06,03,04,03,13.60
2021,06,03,04,04,13.60
2021,06,03,04,05,13.60
2021,06,03,04,06,13.50
2021,06,03,04,07,13.50
2021,06,03,04,08,13.40
2021,06,03,04,09,13.40
2021,06,03,04,10,13.40
2021,06,03,04,11,13.40
2021,06,03,04,12,13.40
2021,06,03,04,13,13.40
2021,06,03,04,14,13.40
2021,06,03,04,15,13.40
2021,06,03,04,16,13.30
2021,06,03,04,17,13.30
2021,06,03,04,18,13.30
2021,06,03,04,19,13.30
2021,06,03,04,20,13.30
2021,06,03,04,21,13.30
2021,06,03,04,22,13.40
2021,06,03,04,23,13.40
2021,06,03,04,24,13.40
2021,06,03,04,25,13.40
2021,06,03,04,26,13.50
2021,06,03,04,27,13.50
2021,06,03,04,28,13.50
2021,06,03,04,29,13.50
2021,06,03,04,30,13.50
2021,06,03,04,31,13.50
2021,06,03,04,32,13.60
2021,06,03,04,33,13.60
2021,06,03,04,34,13.60
2021,06,03,04,35,13.60
2021,06,03,04,36,13.50
2021,06,03,04,37,13.50
2021,06,03,04,38,13.50
2021,06,03,04,39,13.60
2021,06,03,04,40,13.60
2021,06,03,04,41,13.60
2021,06,03,04,42,13.60
2021,06,03,04,43,13.60
2021,06,03,04,44,13.60
2021,06,03,04,45,13.60
2021,06,03,04,46,13.60
2021,06,03,04,47,13.60
2021,06,03,04,48,13.60
2021,06,03,04,49,13.60
2021,06,03,04,50,13.60
2021,06,03,04,51,13.60
2021,06,03,04,52,13.60
2021,06,03,04,53,13.60
2021,06,03,04,54,13.60
2021,06,03,04,55,13.60
2021,06,03,04,56,13.60
2021,06,03,04,57,13.60
2021,06,03,04,58,13.60
2021,06,03,04,59,13.60
2021,06,03,05,00,13.60
2021,06,03,05,01,13.60
2021,06,03,05,02,13.60
2021,06,03,05,03,13.60
2021,06,03,05,04,13.60
2021,06,03,05,05,13.60
2021,06,03,05,06,13.60
2021,06,03,05,07,13.60
2021,06,03,05,08,13.60
2021,06,03,05,09,13.60
2021,06,03,05,10,13.60
2021,06,03,05,11,13.60
2021,06,03,05,12,13.60
2021,06,03,05,13,13.60
2021,06,03,05,14,13.50
2021,06,03,05,15,13.50
2021,06,03,05,16,13.50
2021,06,03,05,17,13.50
2021,06,03,05,18,13.50
2021,06,03,05,19,13.60
2021,06,03,05,20,13.60
2021,06,03,05,21,13.60
2021,06,03,05,22,13.60
2021,06,03,05,23,13.70
2021,06,03,05,24,13.70
2021,06,03,05,25,13.70
2021,06,03,05,26,13.80
2021,06,03,05,27,13.80
2021,06,03,05,28,13.80
2021,06,03,05,29,13.80
2021,06,03,05,30,13.80
2021,06,03,05,31,13.90
2021,06,03,05,32,13.90
2021,06,03,05,33,13.90
2021,06,03,05,34,13.90
2021,06,03,05,35,14.00
2021,06,03,05,36,14.00
2021,06,03,05,37,14.00
2021,06,03,05,38,14.00
2021,06,03,05,39,14.00
2021,06,03,05,40,14.00
2021,06,03,05,41,14.10
2021,06,03,05,42,14.00
2021,06,03,05,43,14.00
2021,06,03,05,44,14.00
2021,06,03,05,45,13.90
2021,06,03,05,46,13.90
2021,06,03,05,47,13.90
2021,06,03,05,48,13.80
2021,06,03,05,49,13.80
2021,06,03,05,50,13.80
2021,06,03,05,51,13.80
2021,06,03,05,52,13.80
2021,06,03,05,53,13.80
2021,06,03,05,54,13.70
2021,06,03,05,55,13.70
2021,06,03,05,56,13.70
2021,06,03,05,57,13.70
2021,06,03,05,58,13.70
2021,06,03,05,59,13.70
2021,06,03,06,00,13.70
2021,06,03,06,01,13.70
2021,06,03,06,02,13.70
2021,06,03,06,03,13.80
2021,06,03,06,04,13.80
2021,06,03,06,05,13.80
2021,06,03,06,06,13.80
2021,06,03,06,07,13.80
2021,06,03,06,08,13.90
2021,06,03,06,09,13.90
2021,06,03,06,10,13.90
2021,06,03,06,11,13.90
2021,06,03,06,12,14.00
2021,06,03,06,13,14.00
2021,06,03,06,14,14.00
2021,06,03,06,15,14.00
2021,06,03,06,16,14.10
2021,06,03,06,17,14.10
2021,06,03,06,18,14.10
2021,06,03,06,19,14.10
2021,06,03,06,20,14.10
2021,06,03,06,21,14.10
2021,06,03,06,22,14.10
2021,06,03,06,23,14.20
2021,06,03,06,24,14.20
2021,06,03,06,25,14.20
2021,06,03,06,26,14.30
2021,06,03,06,27,14.30
2021,06,03,06,28,14.30
2021,06,03,06,29,14.30
2021,06,03,06,30,14.30
2021,06,03,06,31,14.30
2021,06,03,06,32,14.30
2021,06,03,06,33,14.30
2021,06,03,06,34,14.30
2021,06,03,06,35,14.30
2021,06,03,06,36,14.30
2021,06,03,06,37,14.30
2021,06,03,06,38,14.30
2021,06,03,06,39,14.30
2021,06,03,06,40,14.30
2021,06,03,06,41,14.30
2021,06,03,06,42,14.30
2021,06,03,06,43,14.30
2021,06,03,06,44,14.30
2021,06,03,06,45,14.30
2021,06,03,06,46,14.30
2021,06,03,06,47,14.30
2021,06,03,06,48,14.30
2021,06,03,06,49,14.30
2021,06,03,06,50,14.30
2021,06,03,06,51,14.30
2021,06,03,06,52,14.30
2021,06,03,06,53,14.30
2021,06,03,06,54,14.30
2021,06,03,06,55,14.30
2021,06,03,06,56,14.30
2021,06,03,06,57,14.30
2021,06,03,06,58,14.30
2021,06,03,06,59,14.40
2021,06,03,07,00,14.40
2021,06,03,07,01,14.40
2021,06,03,07,02,14.40
2021,06,03,07,03,14.50
2021,06,03,07,04,14.50
2021,06,03,07,05,14.50
2021,06,03,07,06,14.50
2021,06,03,07,07,14.50
2021,06,03,07,08,14.50
2021,06,03,07,09,14.50
2021,06,03,07,10,14.40
2021,06,03,07,11,14.40
2021,06,03,07,12,14.40
2021,06,03,07,13,14.40
2021,06,03,07,14,14.50
2021,06,03,07,15,14.50
2021,06,03,07,16,14.50
2021,06,03,07,17,14.60
2021,06,03,07,18,14.60
2021,06,03,07,19,14.70
2021,06,03,07,20,14.70
2021,06,03,07,21,14.80
2021,06,03,07,22,14.80
2021,06,03,07,23,14.80
2021,06,03,07,24,14.90
2021,06,03,07,25,14.90
2021,06,03,07,26,15.00
2021,06,03,07,27,15.00
2021,06,03,07,28,15.10
2021,06,03,07,29,15.10
2021,06,03,07,30,15.10
2021,06,03,07,31,15.20
2021,06,03,07,32,15.20
2021,06,03,07,33,15.20
2021,06,03,07,34,15.20
2021,06,03,07,35,15.30
2021,06,03,07,36,15.30
2021,06,03,07,37,15.30
2021,06,03,07,38,15.40
2021,06,03,07,39,15.40
2021,06,03,07,40,15.40
2021,06,03,07,41,15.40
2021,06,03,07,42,15.50
2021,06,03,07,43,15.50
2021,06,03,07,44,15.50
2021,06,03,07,45,15.50
2021,06,03,07,46,15.40
2021,06,03,07,47,15.40
2021,06,03,07,48,15.40
2021,06,03,07,49,15.30
2021,06,03,07,50,15.30
2021,06,03,07,51,15.20
2021,06,03,07,52,15.20
2021,06,03,07,53,15.10
2021,06,03,07,54,15.10
2021,06,03,07,55,15.10
2021,06,03,07,56,15.00
2021,06,03,07,57,15.00
2021,06,03,07,58,15.00
2021,06,03,07,59,15.00
2021,06,03,08,00,15.00
2021,06,03,08,01,15.00
2021,06,03,08,02,15.10
2021,06,03,08,03,15.10
2021,06,03,08,04,15.10
2021,06,03,08,05,15.10
2021,06,03,08,06,15.10
2021,06,03,08,07,15.20
2021,06,03,08,08,15.20
2021,06,03,08,09,15.20
2021,06,03,08,10,15.30
2021,06,03,08,11,15.30
2021,06,03,08,12,15.30
2021,06,03,08,13,15.40
2021,06,03,08,14,15.40
2021,06,03,08,15,15.50
2021,06,03,08,16,15.50
2021,06,03,08,17,15.60
2021,06,03,08,18,15.60
2021,06,03,08,19,15.60
2021,06,03,08,20,15.60
2021,06,03,08,21,15.60
2021,06,03,08,22,15.70
2021,06,03,08,23,15.70
2021,06,03,08,24,15.70
2021,06,03,08,25,15.80
2021,06,03,08,26,15.80
2021,06,03,08,27,15.80
2021,06,03,08,28,15.90
2021,06,03,08,29,15.90
2021,06,03,08,30,16.00
2021,06,03,08,31,16.10
2021,06,03,08,32,16.10
2021,06,03,08,33,16.10
2021,06,03,08,34,16.00
2021,06,03,08,35,16.00
2021,06,03,08,36,16.00
2021,06,03,08,37,15.90
2021,06,03,08,38,15.80
2021,06,03,08,39,15.80
2021,06,03,08,40,15.70
2021,06,03,08,41,15.60
2021,06,03,08,42,15.60
2021,06,03,08,43,15.60
2021,06,03,08,44,15.50
2021,06,03,08,45,15.50
2021,06,03,08,46,15.40
2021,06,03,08,47,15.40
2021,06,03,08,48,15.40
2021,06,03,08,49,15.40
2021,06,03,08,50,15.40
2021,06,03,08,51,15.40
2021,06,03,08,52,15.40
2021,06,03,08,53,15.50
2021,06,03,08,54,15.50
2021,06,03,08,55,15.60
2021,06,03,08,56,15.60
2021,06,03,08,57,15.60
2021,06,03,08,58,15.60
2021,06,03,08,59,15.50
2021,06,03,09,00,15.50
2021,06,03,09,01,15.40
2021,06,03,09,02,15.40
2021,06,03,09,03,15.40
2021,06,03,09,04,15.30
2021,06,03,09,05,15.30
2021,06,03,09,06,15.30
2021,06,03,09,07,15.30
2021,06,03,09,08,15.30
2021,06,03,09,09,15.40
2021,06,03,09,10,15.40
2021,06,03,09,11,15.40
2021,06,03,09,12,15.40
2021,06,03,09,13,15.50
2021,06,03,09,14,15.60
2021,06,03,09,15,15.60
2021,06,03,09,16,15.70
2021,06,03,09,17,15.70
2021,06,03,09,18,15.70
2021,06,03,09,19,15.70
2021,06,03,09,20,15.80
2021,06,03,09,21,15.90
2021,06,03,09,22,15.90
2021,06,03,09,23,16.00
2021,06,03,09,24,16.10
2021,06,03,09,25,16.10
2021,06,03,09,26,16.20
2021,06,03,09,27,16.30
2021,06,03,09,28,16.30
2021,06,03,09,29,16.40
2021,06,03,09,30,16.40
2021,06,03,09,31,16.50
2021,06,03,09,32,16.50
2021,06,03,09,33,16.50
2021,06,03,09,34,16.60
2021,06,03,09,35,16.60
2021,06,03,09,36,16.70
2021,06,03,09,37,16.70
2021,06,03,09,38,16.70
2021,06,03,09,39,16.70
2021,06,03,09,40,16.80
2021,06,03,09,41,16.80
2021,06,03,09,42,16.80
2021,06,03,09,43,16.80
2021,06,03,09,44,16.70
2021,06,03,09,45,16.60
2021,06,03,09,46,16.60
2021,06,03,09,47,16.70
2021,06,03,09,48,16.60
2021,06,03,09,49,16.60
2021,06,03,09,50,16.60
2021,06,03,09,51,16.60
2021,06,03,09,52,16.60
2021,06,03,09,53,16.60
2021,06,03,09,54,16.70
2021,06,03,09,55,16.70
2021,06,03,09,56,16.70
2021,06,03,09,57,16.80
2021,06,03,09,58,16.80
2021,06,03,09,59,16.90
2021,06,03,10,00,16.90
2021,06,03,10,01,16.90
2021,06,03,10,02,17.00
2021,06,03,10,03,17.00
2021,06,03,10,04,17.10
2021,06,03,10,05,17.30
2021,06,03,10,06,17.40
2021,06,03,10,07,17.50
2021,06,03,10,08,17.60
2021,06,03,10,09,17.70
2021,06,03,10,10,17.70
2021,06,03,10,11,17.80
2021,06,03,10,12,17.80
2021,06,03,10,13,17.80
2021,06,03,10,14,17.90
2021,06,03,10,15,18.00
2021,06,03,10,16,18.10
2021,06,03,10,17,18.20
2021,06,03,10,18,18.30
2021,06,03,10,19,18.40
2021,06,03,10,20,18.60
2021,06,03,10,21,18.70
2021,06,03,10,22,18.80
2021,06,03,10,23,18.90
2021,06,03,10,24,19.00
2021,06,03,10,25,19.10
2021,06,03,10,26,19.10
2021,06,03,10,27,19.00
2021,06,03,10,28,18.90
2021,06,03,10,29,18.90
2021,06,03,10,30,18.90
2021,06,03,10,31,18.90
2021,06,03,10,32,18.90
2021,06,03,10,33,18.90
2021,06,03,10,34,18.90
2021,06,03,10,35,18.90
2021,06,03,10,36,18.90
2021,06,03,10,37,18.90
2021,06,03,10,38,18.90
2021,06,03,10,39,19.00
2021,06,03,10,40,19.00
2021,06,03,10,41,19.00
2021,06,03,10,42,19.00
2021,06,03,10,43,19.10
2021,06,03,10,44,19.10
2021,06,03,10,45,19.10
2021,06,03,10,46,19.10
2021,06,03,10,47,19.20
2021,06,03,10,48,19.20
2021,06,03,10,49,19.30
2021,06,03,10,50,19.40
2021,06,03,10,51,19.50
2021,06,03,10,52,19.60
2021,06,03,10,53,19.80
2021,06,03,10,54,19.90
2021,06,03,10,55,20.00
2021,06,03,10,56,20.00
2021,06,03,10,57,19.90
2021,06,03,10,58,19.90
2021,06,03,10,59,19.80
2021,06,03,11,00,19.80
2021,06,03,11,01,19.70
2021,06,03,11,02,19.50
2021,06,03,11,03,19.50
2021,06,03,11,04,19.40
2021,06,03,11,05,19.30
2021,06,03,11,06,19.30
2021,06,03,11,07,19.30
2021,06,03,11,08,19.30
2021,06,03,11,09,19.30
2021,06,03,11,10,19.40
2021,06,03,11,11,19.40
2021,06,03,11,12,19.50
2021,06,03,11,13,19.60
2021,06,03,11,14,19.70
2021,06,03,11,15,19.80
2021,06,03,11,16,19.80
2021,06,03,11,17,19.80
2021,06,03,11,18,19.80
2021,06,03,11,19,19.70
2021,06,03,11,20,19.60
2021,06,03,11,21,19.50
2021,06,03,11,22,19.50
2021,06,03,11,23,19.40
2021,06,03,11,24,19.40
2021,06,03,11,25,19.40
2021,06,03,11,26,19.50
2021,06,03,11,27,19.50
2021,06,03,11,28,19.50
2021,06,03,11,29,19.60
2021,06,03,11,30,19.60
2021,06,03,11,31,19.80
2021,06,03,11,32,19.90
2021,06,03,11,33,19.90
2021,06,03,11,34,20.00
2021,06,03,11,35,20.10
2021,06,03,11,36,20.10
2021,06,03,11,37,20.00
2021,06,03,11,38,19.90
2021,06,03,11,39,20.00
2021,06,03,11,40,20.10
2021,06,03,11,41,20.20
2021,06,03,11,42,20.20
2021,06,03,11,43,20.20
2021,06,03,11,44,20.20
2021,06,03,11,45,20.20
2021,06,03,11,46,20.20
2021,06,03,11,47,20.10
2021,06,03,11,48,20.00
2021,06,03,11,49,20.00
2021,06,03,11,50,20.00
2021,06,03,11,51,20.00
2021,06,03,11,52,19.90
2021,06,03,11,53,19.90
2021,06,03,11,54,19.80
2021,06,03,11,55,19.80
2021,06,03,11,56,19.80
2021,06,03,11,57,19.90
2021,06,03,11,58,20.10
2021,06,03,11,59,20.20
2021,06,03,12,00,20.40
2021,06,03,12,01,20.60
2021,06,03,12,02,20.90
2021,06,03,12,03,21.10
2021,06,03,12,04,21.30
2021,06,03,12,05,21.40
2021,06,03,12,06,21.60
2021,06,03,12,07,21.70
2021,06,03,12,08,21.80
2021,06,03,12,09,21.90
2021,06,03,12,10,21.90
2021,06,03,12,11,21.90
2021,06,03,12,12,22.00
2021,06,03,12,13,22.20
2021,06,03,12,14,22.30
2021,06,03,12,15,22.40
2021,06,03,12,16,22.40
2021,06,03,12,17,22.30
2021,06,03,12,18,22.30
2021,06,03,12,19,22.30
2021,06,03,12,20,22.30
2021,06,03,12,21,22.30
2021,06,03,12,22,22.40
2021,06,03,12,23,22.40
2021,06,03,12,24,22.30
2021,06,03,12,25,22.20
2021,06,03,12,26,22.10
2021,06,03,12,27,21.90
2021,06,03,12,28,21.80
2021,06,03,12,29,21.70
2021,06,03,12,30,21.60
2021,06,03,12,31,21.70
2021,06,03,12,32,21.70
2021,06,03,12,33,21.70
2021,06,03,12,34,21.60
2021,06,03,12,35,21.50
2021,06,03,12,36,21.40
2021,06,03,12,37,21.30
2021,06,03,12,38,21.30
2021,06,03,12,39,21.30
2021,06,03,12,40,21.30
2021,06,03,12,41,21.30
2021,06,03,12,42,21.30
2021,06,03,12,43,21.40
2021,06,03,12,44,21.40
2021,06,03,12,45,21.60
2021,06,03,12,46,21.70
2021,06,03,12,47,22.00
2021,06,03,12,48,22.10
2021,06,03,12,49,22.40
2021,06,03,12,50,22.60
2021,06,03,12,51,22.70
2021,06,03,12,52,22.80
2021,06,03,12,53,22.80
2021,06,03,12,54,22.90
2021,06,03,12,55,23.00
2021,06,03,12,56,23.10
2021,06,03,12,57,23.20
2021,06,03,12,58,23.30
2021,06,03,12,59,23.40
2021,06,03,13,00,23.40
2021,06,03,13,01,23.40
2021,06,03,13,02,23.50
2021,06,03,13,03,23.50
2021,06,03,13,04,23.50
2021,06,03,13,05,23.60
2021,06,03,13,06,23.60
2021,06,03,13,07,23.60
2021,06,03,13,08,23.70
2021,06,03,13,09,23.70
2021,06,03,13,10,23.80
2021,06,03,13,11,23.80
2021,06,03,13,12,23.70
2021,06,03,13,13,23.60
2021,06,03,13,14,23.60
2021,06,03,13,15,23.60
2021,06,03,13,16,23.50
2021,06,03,13,17,23.40
2021,06,03,13,18,23.30
2021,06,03,13,19,23.20
2021,06,03,13,20,23.10
2021,06,03,13,21,23.00
2021,06,03,13,22,23.00
2021,06,03,13,23,23.10
2021,06,03,13,24,23.10
2021,06,03,13,25,23.20
2021,06,03,13,26,23.20
2021,06,03,13,27,23.40
2021,06,03,13,28,23.50
2021,06,03,13,29,23.70
2021,06,03,13,30,23.80
2021,06,03,13,31,23.90
2021,06,03,13,32,24.00
2021,06,03,13,33,23.90
2021,06,03,13,34,23.90
2021,06,03,13,35,23.80
2021,06,03,13,36,23.80
2021,06,03,13,37,23.80
2021,06,03,13,38,23.80
2021,06,03,13,39,23.80
2021,06,03,13,40,23.70
2021,06,03,13,41,23.80
2021,06,03,13,42,23.80
2021,06,03,13,43,23.80
2021,06,03,13,44,23.80
2021,06,03,13,45,23.80
2021,06,03,13,46,23.70
2021,06,03,13,47,23.60
2021,06,03,13,48,23.40
2021,06,03,13,49,23.30
2021,06,03,13,50,23.20
2021,06,03,13,51,23.10
2021,06,03,13,52,23.10
2021,06,03,13,53,23.10
2021,06,03,13,54,23.10
2021,06,03,13,55,23.10
2021,06,03,13,56,23.10
2021,06,03,13,57,23.20
2021,06,03,13,58,23.40
2021,06,03,13,59,23.50
2021,06,03,14,00,23.60
2021,06,03,14,01,23.50
2021,06,03,14,02,23.60
2021,06,03,14,03,23.60
2021,06,03,14,04,23.60
2021,06,03,14,05,23.60
2021,06,03,14,06,23.70
2021,06,03,14,07,23.80
2021,06,03,14,08,23.90
2021,06,03,14,09,24.00
2021,06,03,14,10,24.10
2021,06,03,14,11,24.00
2021,06,03,14,12,24.00
2021,06,03,14,13,23.90
2021,06,03,14,14,23.80
2021,06,03,14,15,23.80
2021,06,03,14,16,23.80
2021,06,03,14,17,23.80
2021,06,03,14,18,23.70
2021,06,03,14,19,23.60
2021,06,03,14,20,23.50
2021,06,03,14,21,23.40
2021,06,03,14,22,23.30
2021,06,03,14,23,23.40
2021,06,03,14,24,23.40
2021,06,03,14,25,23.40
2021,06,03,14,26,23.50
2021,06,03,14,27,23.50
2021,06,03,14,28,23.40
2021,06,03,14,29,23.50
2021,06,03,14,30,23.60
2021,06,03,14,31,23.70
2021,06,03,14,32,23.80
2021,06,03,14,33,23.90
2021,06,03,14,34,23.90
2021,06,03,14,35,24.10
2021,06,03,14,36,24.20
2021,06,03,14,37,24.30
2021,06,03,14,38,24.30
2021,06,03,14,39,24.30
2021,06,03,14,40,24.30
2021,06,03,14,41,24.20
2021,06,03,14,42,24.20
2021,06,03,14,43,24.30
2021,06,03,14,44,24.30
2021,06,03,14,45,24.30
2021,06,03,14,46,24.30
2021,06,03,14,47,24.20
2021,06,03,14,48,23.90
2021,06,03,14,49,23.60
2021,06,03,14,50,23.30
2021,06,03,14,51,22.90
2021,06,03,14,52,22.60
2021,06,03,14,53,22.40
2021,06,03,14,54,22.30
2021,06,03,14,55,22.30
2021,06,03,14,56,22.40
2021,06,03,14,57,22.60
2021,06,03,14,58,22.80
2021,06,03,14,59,23.00
2021,06,03,15,00,23.20
2021,06,03,15,01,23.30
2021,06,03,15,02,23.50
2021,06,03,15,03,23.50
2021,06,03,15,04,23.40
2021,06,03,15,05,23.30
2021,06,03,15,06,23.10
2021,06,03,15,07,22.90
2021,06,03,15,08,22.80
2021,06,03,15,09,22.60
2021,06,03,15,10,22.40
2021,06,03,15,11,22.30
2021,06,03,15,12,22.30
2021,06,03,15,13,22.30
2021,06,03,15,14,22.40
2021,06,03,15,15,22.50
2021,06,03,15,16,22.70
2021,06,03,15,17,23.00
2021,06,03,15,18,23.10
2021,06,03,15,19,23.30
2021,06,03,15,20,23.30
2021,06,03,15,21,23.40
2021,06,03,15,22,23.40
2021,06,03,15,23,23.50
2021,06,03,15,24,23.70
2021,06,03,15,25,23.80
2021,06,03,15,26,23.90
2021,06,03,15,27,23.90
2021,06,03,15,28,24.00
2021,06,03,15,29,24.00
2021,06,03,15,30,24.10
2021,06,03,15,31,24.20
2021,06,03,15,32,24.20
2021,06,03,15,33,24.30
2021,06,03,15,34,24.40
2021,06,03,15,35,24.50
2021,06,03,15,36,24.50
2021,06,03,15,37,24.40
2021,06,03,15,38,24.20
2021,06,03,15,39,24.00
2021,06,03,15,40,23.80
2021,06,03,15,41,23.60
2021,06,03,15,42,23.50
2021,06,03,15,43,23.30
2021,06,03,15,44,23.10
2021,06,03,15,45,22.80
2021,06,03,15,46,22.70
2021,06,03,15,47,22.60
2021,06,03,15,48,22.60
2021,06,03,15,49,22.50
2021,06,03,15,50,22.50
2021,06,03,15,51,22.50
2021,06,03,15,52,22.50
2021,06,03,15,53,22.60
2021,06,03,15,54,22.70
2021,06,03,15,55,22.90
2021,06,03,15,56,23.10
2021,06,03,15,57,23.20
2021,06,03,15,58,23.20
2021,06,03,15,59,23.10
2021,06,03,16,00,23.20
2021,06,03,16,01,23.20
2021,06,03,16,02,23.30
2021,06,03,16,03,23.40
2021,06,03,16,04,23.60
2021,06,03,16,05,23.90
2021,06,03,16,06,24.10
2021,06,03,16,07,24.20
2021,06,03,16,08,24.40
2021,06,03,16,09,24.50
2021,06,03,16,10,24.50
2021,06,03,16,11,24.60
2021,06,03,16,12,24.60
2021,06,03,16,13,24.60
2021,06,03,16,14,24.60
2021,06,03,16,15,24.60
2021,06,03,16,16,24.60
2021,06,03,16,17,24.70
2021,06,03,16,18,24.70
2021,06,03,16,19,24.80
2021,06,03,16,20,24.80
2021,06,03,16,21,24.80
2021,06,03,16,22,24.90
2021,06,03,16,23,24.90
2021,06,03,16,24,24.90
2021,06,03,16,25,24.90
2021,06,03,16,26,24.90
2021,06,03,16,27,24.90
2021,06,03,16,28,24.90
2021,06,03,16,29,24.80
2021,06,03,16,30,24.60
2021,06,03,16,31,24.40
2021,06,03,16,32,24.30
2021,06,03,16,33,24.10
2021,06,03,16,34,24.00
2021,06,03,16,35,23.80
2021,06,03,16,36,23.60
2021,06,03,16,37,23.40
2021,06,03,16,38,23.30
2021,06,03,16,39,23.20
2021,06,03,16,40,23.20
2021,06,03,16,41,23.10
2021,06,03,16,42,23.00
2021,06,03,16,43,22.80
2021,06,03,16,44,22.60
2021,06,03,16,45,22.40
2021,06,03,16,46,22.20
2021,06,03,16,47,22.00
2021,06,03,16,48,21.80
2021,06,03,16,49,21.60
2021,06,03,16,50,21.50
2021,06,03,16,51,21.40
2021,06,03,16,52,21.40
2021,06,03,16,53,21.40
2021,06,03,16,54,21.40
2021,06,03,16,55,21.50
2021,06,03,16,56,21.60
2021,06,03,16,57,21.80
2021,06,03,16,58,21.90
2021,06,03,16,59,22.10
2021,06,03,17,00,22.20
2021,06,03,17,01,22.30
2021,06,03,17,02,22.50
2021,06,03,17,03,22.60
2021,06,03,17,04,22.70
2021,06,03,17,05,22.80
2021,06,03,17,06,22.80
2021,06,03,17,07,22.70
2021,06,03,17,08,22.70
2021,06,03,17,09,22.80
2021,06,03,17,10,22.80
2021,06,03,17,11,22.80
2021,06,03,17,12,22.80
2021,06,03,17,13,22.80
2021,06,03,17,14,22.90
2021,06,03,17,15,22.90
2021,06,03,17,16,22.90
2021,06,03,17,17,22.80
2021,06,03,17,18,22.80
2021,06,03,17,19,22.80